Grosse Ile, MI

1:34 PM EDT on September 30, 2016 (GMT -0400)
Grosse Ile Municipal

Weather History for KONZ - December, 2012

Change the Weather History Date:

Tuesday, December 11, 2012

  Actual Average (KDTW) Record (KDTW)
Temperature  
Mean Temperature 32 °F 31 °F  
Max Temperature 35 °F 37 °F 62 °F (1931)
Min Temperature 28 °F 25 °F -9 °F (1977)
Degree Days  
Heating Degree Days 34 34  
Month to date heating degree days 351  
Since 1 July heating degree days 1566  
Cooling Degree Days 0 0  
Month to date cooling degree days 0  
Year to date cooling degree days 803  
Moisture  
Dew Point 22 °F    
Average Humidity 69    
Maximum Humidity 86    
Minimum Humidity 52    
Precipitation  
Precipitation 0.00 in 0.08 in 0.92 in (1899)
Month to date precipitation 0.91  
Year to date precipitation 31.92  
Snow  
Snow 0.00 in 0.30 in 5.50 in (2000)
Month to date snowfall 2.6  
Since 1 July snowfall 4.2  
Snow Depth -    
Sea Level Pressure  
Sea Level Pressure 30.01 in    
Wind  
Wind Speed 5 mph (WSW)    
Max Wind Speed 13 mph    
Max Gust Speed 22 mph    
Visibility 10 miles    
Events Snow    
T = Trace of Precipitation, MM = Missing Value Source: NWS Daily Summary

Daily Weather History Graph

Daily Weather History Graph

Search for Another Location

Airport or City:

Trip Planner

Search our weather history database for the weather conditions in past years. The results will help you decide how hot, cold, wet, or windy it might be!

Date:

Astronomy

Dec. 11, 2012 Rise Set
Actual Time 7:51 AM EST 5:00 PM EST
Civil Twilight 7:19 AM EST 5:32 PM EST
Nautical Twilight 6:44 AM EST 6:07 PM EST
Astronomical Twilight 6:10 AM EST 6:41 PM EST
Moon 5:43 AM EST (12/11) 3:39 PM EST (12/11)
Length of Visible Light 10h 13m
Length of Day
9h 09m
Waning Crescent, 4% of the Moon is Illuminated
Dec 11
Waning Crescent
Dec 13
New
Dec 20
First Quarter
Dec 28
Full
Jan 4
Last Quarter

Hourly Weather History & Observations

Time (EST) Temp. Windchill Dew Point Humidity Pressure Visibility Wind Dir Wind Speed Gust Speed Precip Events Conditions
12:14 AM 33.8 °F 27.7 °F 23.0 °F 65% 29.86 in 10.0 mi NW 6.9 mph - N/A   Overcast
12:34 AM 33.8 °F 27.7 °F 23.0 °F 65% 29.85 in 10.0 mi North 6.9 mph - N/A   Overcast
12:54 AM 33.8 °F 30.8 °F 24.8 °F 70% 29.85 in 10.0 mi North 3.5 mph - N/A   Overcast
1:14 AM 32.0 °F 27.5 °F 23.0 °F 69% 29.85 in 10.0 mi NNW 4.6 mph - N/A   Mostly Cloudy
1:34 AM 32.0 °F - 21.2 °F 64% 29.85 in 10.0 mi Calm Calm - N/A   Overcast
1:54 AM 32.0 °F 27.5 °F 23.0 °F 69% 29.86 in 10.0 mi NNW 4.6 mph - N/A   Overcast
2:14 AM 30.2 °F - 23.0 °F 75% 29.87 in 10.0 mi Calm Calm - N/A   Overcast
2:34 AM 32.0 °F - 21.2 °F 64% 29.88 in 10.0 mi Calm Calm - N/A   Overcast
2:54 AM 32.0 °F 28.7 °F 23.0 °F 69% 29.88 in 10.0 mi West 3.5 mph - N/A   Overcast
3:14 AM 32.0 °F - 23.0 °F 69% 29.89 in 10.0 mi Calm Calm - N/A   Overcast
3:34 AM 32.0 °F - 21.2 °F 64% 29.89 in 10.0 mi Calm Calm - N/A   Overcast
3:54 AM 32.0 °F 28.7 °F 21.2 °F 64% 29.90 in 10.0 mi WNW 3.5 mph - N/A   Overcast
4:14 AM 30.2 °F 25.4 °F 21.2 °F 69% 29.90 in 10.0 mi West 4.6 mph - N/A   Overcast
4:34 AM 30.2 °F - 21.2 °F 69% 29.91 in 10.0 mi Calm Calm - N/A   Scattered Clouds
4:54 AM 30.2 °F 26.7 °F 23.0 °F 75% 29.91 in 10.0 mi WNW 3.5 mph - N/A   Clear
5:14 AM 30.2 °F 25.4 °F 23.0 °F 75% 29.93 in 10.0 mi WNW 4.6 mph - N/A   Clear
5:34 AM 28.4 °F 23.3 °F 21.2 °F 74% 29.93 in 10.0 mi WNW 4.6 mph - N/A   Clear
5:54 AM 28.4 °F 24.6 °F 23.0 °F 80% 29.93 in 10.0 mi West 3.5 mph - N/A   Clear
6:14 AM 28.4 °F - 23.0 °F 80% 29.94 in 10.0 mi Calm Calm - N/A   Clear
6:34 AM 28.4 °F - 23.0 °F 80% 29.94 in 10.0 mi Calm Calm - N/A   Scattered Clouds
6:54 AM 28.4 °F 24.6 °F 23.0 °F 80% 29.95 in 10.0 mi West 3.5 mph - N/A   Scattered Clouds
7:14 AM 28.4 °F - 24.8 °F 86% 29.96 in 10.0 mi Calm Calm - N/A   Mostly Cloudy
7:34 AM 28.4 °F - 24.8 °F 86% 29.97 in 10.0 mi Calm Calm - N/A   Overcast
7:54 AM 28.4 °F 24.6 °F 23.0 °F 80% 29.97 in 10.0 mi NW 3.5 mph - N/A   Overcast
8:14 AM 28.4 °F 24.6 °F 23.0 °F 80% 29.98 in 10.0 mi NW 3.5 mph - N/A   Overcast
8:34 AM 28.4 °F 21.2 °F 21.2 °F 74% 29.99 in 10.0 mi NNW 6.9 mph - N/A   Overcast
8:54 AM 28.4 °F 24.6 °F 21.2 °F 74% 30.00 in 10.0 mi NNW 3.5 mph - N/A   Overcast
9:14 AM 28.4 °F - 21.2 °F 74% 30.01 in 10.0 mi Calm Calm - N/A   Overcast
9:34 AM 30.2 °F - 23.0 °F 75% 30.02 in 10.0 mi Calm Calm - N/A   Overcast
9:54 AM 30.2 °F - 23.0 °F 75% 30.02 in 10.0 mi Calm Calm - N/A   Mostly Cloudy
10:14 AM 30.2 °F - 23.0 °F 75% 30.02 in 10.0 mi Calm Calm - N/A   Mostly Cloudy
10:34 AM 32.0 °F 28.7 °F 23.0 °F 69% 30.03 in 10.0 mi WSW 3.5 mph - N/A   Mostly Cloudy
10:54 AM 32.0 °F - 24.8 °F 75% 30.04 in 10.0 mi Calm Calm - N/A   Overcast
11:14 AM 33.8 °F 30.8 °F 24.8 °F 70% 30.03 in 10.0 mi SSW 3.5 mph - N/A   Scattered Clouds
11:34 AM 33.8 °F 28.6 °F 24.8 °F 70% 30.03 in 10.0 mi WSW 5.8 mph - N/A   Mostly Cloudy
12:14 PM 35.6 °F 30.7 °F 26.6 °F 70% 30.03 in 10.0 mi WSW 5.8 mph - N/A Snow Light Snow
12:34 PM 35.6 °F 28.0 °F 26.6 °F 70% 30.02 in 10.0 mi WSW 10.4 mph - N/A   Mostly Cloudy
12:54 PM 35.6 °F 29.2 °F 26.6 °F 70% 30.02 in 10.0 mi West 8.1 mph - N/A   Overcast
1:14 PM 35.6 °F 29.9 °F 26.6 °F 70% 30.02 in 10.0 mi WSW 6.9 mph - N/A   Overcast
1:34 PM 35.6 °F 28.0 °F 26.6 °F 70% 30.02 in 10.0 mi WSW 10.4 mph - N/A   Overcast
1:54 PM 35.6 °F 27.5 °F 23.0 °F 60% 30.02 in 10.0 mi SW 11.5 mph - N/A   Overcast
2:14 PM 35.6 °F 27.1 °F 21.2 °F 56% 30.03 in 10.0 mi SW 12.7 mph 20.7 mph N/A   Overcast
2:34 PM 35.6 °F 27.5 °F 21.2 °F 56% 30.04 in 10.0 mi SW 11.5 mph 18.4 mph N/A   Overcast
2:54 PM 33.8 °F 25.3 °F 21.2 °F 60% 30.04 in 10.0 mi WSW 11.5 mph 18.4 mph N/A   Overcast
3:14 PM 33.8 °F 24.8 °F 21.2 °F 60% 30.05 in 10.0 mi SW 12.7 mph - N/A   Overcast
3:34 PM 33.8 °F 25.3 °F 19.4 °F 56% 30.05 in 10.0 mi WSW 11.5 mph 19.6 mph N/A   Overcast
3:54 PM 33.8 °F 26.4 °F 21.2 °F 60% 30.05 in 10.0 mi SW 9.2 mph - N/A   Overcast
4:14 PM 33.8 °F 24.8 °F 21.2 °F 60% 30.05 in 10.0 mi SW 12.7 mph 17.3 mph N/A   Overcast
4:34 PM 33.8 °F 27.0 °F 19.4 °F 56% 30.06 in 10.0 mi SW 8.1 mph - N/A   Overcast
4:54 PM 33.8 °F 24.8 °F 19.4 °F 56% 30.06 in 10.0 mi SW 12.7 mph 21.9 mph N/A   Overcast
5:14 PM 33.8 °F 26.4 °F 17.6 °F 52% 30.07 in 10.0 mi SSW 9.2 mph - N/A   Mostly Cloudy
5:34 PM 33.8 °F 26.4 °F 19.4 °F 56% 30.07 in 10.0 mi SW 9.2 mph - N/A   Mostly Cloudy
5:54 PM 32.0 °F 24.2 °F 19.4 °F 60% 30.08 in 10.0 mi SW 9.2 mph - N/A   Scattered Clouds
6:14 PM 32.0 °F 22.5 °F 19.4 °F 60% 30.09 in 10.0 mi SW 12.7 mph 19.6 mph N/A   Clear
6:34 PM 30.2 °F 21.9 °F 19.4 °F 64% 30.09 in 10.0 mi SW 9.2 mph - N/A   Clear
6:54 PM 30.2 °F 22.6 °F 19.4 °F 64% 30.09 in 10.0 mi SW 8.1 mph - N/A   Clear
7:14 PM 30.2 °F 23.4 °F 19.4 °F 64% 30.09 in 10.0 mi SW 6.9 mph - N/A   Clear
7:34 PM 30.2 °F 21.9 °F 21.2 °F 69% 30.10 in 10.0 mi SSW 9.2 mph - N/A   Clear
7:54 PM 30.2 °F 21.3 °F 21.2 °F 69% 30.10 in 10.0 mi SSW 10.4 mph - N/A   Clear
8:14 PM 30.2 °F 21.3 °F 21.2 °F 69% 30.10 in 10.0 mi SSW 10.4 mph - N/A   Clear
8:34 PM 30.2 °F 21.9 °F 21.2 °F 69% 30.11 in 10.0 mi SW 9.2 mph - N/A   Clear
8:54 PM 30.2 °F 20.8 °F 21.2 °F 69% 30.12 in 10.0 mi SSW 11.5 mph - N/A   Clear
9:14 PM 30.2 °F 21.3 °F 21.2 °F 69% 30.13 in 10.0 mi SW 10.4 mph 17.3 mph N/A   Clear
9:34 PM 30.2 °F 21.9 °F 21.2 °F 69% 30.13 in 10.0 mi SSW 9.2 mph - N/A   Clear
9:54 PM 30.2 °F 21.3 °F 21.2 °F 69% 30.13 in 10.0 mi SSW 10.4 mph - N/A   Clear
10:15 PM 30.2 °F 21.9 °F 21.2 °F 69% 30.14 in 10.0 mi SW 9.2 mph - N/A   Clear
10:34 PM 30.2 °F 23.4 °F 23.0 °F 75% 30.15 in 10.0 mi SW 6.9 mph - N/A   Clear
10:54 PM 30.2 °F 23.4 °F 23.0 °F 75% 30.15 in 10.0 mi SW 6.9 mph - N/A   Clear
11:14 PM 28.4 °F 19.7 °F 23.0 °F 80% 30.15 in 10.0 mi SSW 9.2 mph - N/A   Clear
11:34 PM 28.4 °F 20.4 °F 23.0 °F 80% 30.16 in 10.0 mi SSW 8.1 mph - N/A   Clear
11:54 PM 28.4 °F 20.4 °F 23.0 °F 80% 30.16 in 10.0 mi SSW 8.1 mph - N/A   Clear